CST,Max TemperatureF,Mean TemperatureF,Min TemperatureF,Max Dew PointF,MeanDew PointF,Min DewpointF,Max Humidity, Mean Humidity, Min Humidity, Max Sea Level PressureIn, Mean Sea Level PressureIn, Min Sea Level PressureIn, Max VisibilityMiles, Mean VisibilityMiles, Min VisibilityMiles, Max Wind SpeedMPH, Mean Wind SpeedMPH, Max Gust SpeedMPH,PrecipitationIn, CloudCover, Events, WindDirDegrees
2012-12-1,71,48,25,33,27,22,82,52,22,29.97,29.87,29.79,10,10,10,26,6,31,0.00,0,,300
2012-12-2,69,46,22,32,27,19,88,55,22,30.04,29.85,29.60,10,10,10,28,10,38,0.00,0,,185
2012-12-3,58,39,20,36,23,12,85,54,23,30.22,29.91,29.56,10,10,10,29,10,36,0.00,0,,330
2012-12-4,55,36,16,19,15,11,74,48,22,30.40,30.29,30.21,10,10,10,10,5,13,0.00,0,,267
2012-12-5,60,42,24,28,22,15,68,48,27,30.19,29.97,29.79,10,10,10,17,6,23,0.00,1,,188
2012-12-6,49,35,21,30,21,13,70,48,25,30.04,29.97,29.83,10,10,10,21,10,33,T,1,Rain,360
2012-12-7,47,31,14,23,19,13,84,61,37,30.07,30.01,29.91,10,10,10,21,6,24,0.00,0,,332
2012-12-8,46,29,12,31,21,10,92,65,37,30.05,29.88,29.69,10,10,10,25,9,30,T,7,Rain,193
2012-12-9,33,14,-5,19,2,-7,87,66,45,30.41,30.22,29.92,10,10,10,32,18,43,0.00,0,,321
2012-12-10,42,17,-9,15,4,-11,87,57,27,30.31,30.06,29.91,10,10,10,20,6,23,0.00,3,,307
2012-12-11,43,24,5,15,11,5,100,65,29,30.09,30.00,29.88,10,10,10,17,8,23,0.00,0,,256
2012-12-12,54,33,11,14,10,4,67,43,19,29.94,29.87,29.78,10,10,10,14,4,18,0.00,0,,178
2012-12-13,50,33,15,20,15,9,74,52,29,30.13,30.04,29.94,10,10,10,9,3,12,0.00,0,,314
2012-12-14,41,25,8,34,22,6,100,74,48,30.01,29.75,29.49,10,8,2,12,2,15,0.08,5,Rain,80
2012-12-15,48,36,24,34,28,20,100,73,45,29.80,29.65,29.47,10,10,6,18,8,22,0.00,5,,312
2012-12-16,45,32,19,30,23,16,100,74,48,29.83,29.79,29.71,10,10,6,13,4,22,0.00,3,,278
2012-12-17,50,29,8,25,17,6,92,61,29,29.82,29.69,29.55,10,10,7,15,6,17,0.00,0,,290
2012-12-18,50,38,25,26,17,12,81,52,23,29.82,29.72,29.52,10,10,10,26,11,35,0.00,3,,290
2012-12-19,32,26,19,25,20,12,92,75,58,30.14,29.88,29.76,10,5,0,38,17,48,0.18,7,Fog-Snow,18
2012-12-20,30,16,2,16,7,-3,92,69,46,30.33,30.27,30.15,10,10,10,18,10,23,0.00,0,,292
2012-12-21,38,20,2,24,11,0,92,74,56,30.37,30.27,30.18,10,10,7,9,4,10,0.00,0,,307
2012-12-22,40,21,2,28,13,-1,100,78,56,30.16,30.10,29.99,10,9,4,10,4,12,0.00,0,,311
2012-12-23,34,18,1,25,9,-3,91,80,69,30.16,30.06,29.92,10,10,7,8,2,10,0.00,1,,330
2012-12-24,20,13,5,10,7,3,88,75,62,30.29,30.16,30.09,10,10,7,16,8,18,0.00,5,,53
2012-12-25,14,6,-3,7,3,-8,87,77,66,30.53,30.38,30.21,10,5,1,15,6,18,0.08,7,Snow,21
2012-12-26,18,5,-8,8,-2,-12,91,76,61,30.40,30.18,29.93,10,10,9,16,6,18,0.00,4,,123
2012-12-27,18,8,-3,11,7,-4,92,80,67,30.11,29.95,29.80,10,7,1,15,6,17,0.02,7,Snow,69
2012-12-28,20,9,-3,10,2,-4,95,78,61,30.24,30.12,29.95,10,10,9,12,7,14,T,4,,309
2012-12-29,29,14,-2,16,7,-3,96,77,58,30.36,30.30,30.20,10,10,10,17,6,20,0.00,0,,290
2012-12-30,34,23,12,18,14,9,84,68,51,30.21,30.10,29.93,10,10,10,20,7,23,0.00,1,,298
2012-12-31,24,21,18,20,18,16,92,87,81,30.27,30.17,30.06,10,8,1,13,6,16,0.01,8,Snow,37